Location: Hodgeman County Ambulance
(38.0844°N, 99.8949°W)
Time: 11:52:32
(UTC+00:00)

Tiangong - Visible Passes

Search period start: 18 September 2021 00:00
Search period end: 28 September 2021 00:00
Orbit: 381 x 386 km, 41.5° (Epoch: 18 September)

Date Brightness Start Highest point End Pass type
(mag) Time Alt. Az. Time Alt. Az. Time Alt. Az.
23 Sep 3.9 11:33:11 10° S 11:34:50 13° SE 11:36:29 10° ESE visible
25 Sep 2.9 11:13:37 16° SSW 11:15:19 25° SSE 11:18:02 10° E visible
26 Sep 4.1 10:19:01 13° ESE 10:19:01 13° ESE 10:19:46 10° ESE visible
26 Sep 1.2 11:51:23 11° WSW 11:54:27 78° SSE 11:57:42 10° ENE visible
27 Sep 1.6 10:57:00 47° SSE 10:57:11 48° SSE 11:00:19 10° E visible
